| time (UTC) | temp F | wind direction | speed MPH | gust MPH | rain 1hr in | rain 24hr in | rain mn in | humidity % | barometer mb |
| 20260504045827 | 56 | 156 | 0.0 | 0.0 | 0.00 | 0.00 | 0.00 | 48 | 997.4 |
| 20260504043827 | 59 | 231 | 0.0 | 1.0 | 0.00 | 0.00 | 0.00 | 43 | 997.7 |
| 20260504042827 | 60 | 258 | 1.0 | 2.0 | 0.00 | 0.00 | 0.00 | 43 | 997.6 |
| 20260504040827 | 60 | 248 | 1.0 | 2.0 | 0.00 | 0.00 | 0.00 | 42 | 997.9 |
| 20260504035827 | 61 | 236 | 3.0 | 4.0 | 0.00 | 0.00 | 0.00 | 41 | 998.1 |
| 20260504033827 | 61 | 255 | 2.0 | 2.0 | 0.00 | 0.00 | 0.00 | 40 | 998.3 |
| 20260504032828 | 62 | 225 | 1.0 | 2.0 | 0.00 | 0.00 | 0.00 | 40 | 998.5 |
| 20260504030827 | 62 | 266 | 2.0 | 4.0 | 0.00 | 0.00 | 0.00 | 39 | 998.5 |
| 20260504025827 | 60 | 230 | 1.0 | 2.0 | 0.00 | 0.00 | 0.00 | 41 | 998.4 |
| 20260504023828 | 57 | 198 | 0.0 | 0.0 | 0.00 | 0.00 | 0.00 | 51 | 998.5 |
| 20260504022827 | 56 | 195 | 0.0 | 0.0 | 0.00 | 0.00 | 0.00 | 51 | 998.3 |
| 20260504021827 | 58 | 195 | 0.0 | 0.0 | 0.00 | 0.00 | 0.00 | 50 | 998.3 |
| 20260504020827 | 58 | 225 | 0.0 | 0.0 | 0.00 | 0.00 | 0.00 | 47 | 998.4 |
| 20260504014827 | 59 | 238 | 0.0 | 0.0 | 0.00 | 0.00 | 0.00 | 42 | 998.4 |
| 20260504013826 | 61 | 237 | 0.0 | 0.0 | 0.00 | 0.00 | 0.00 | 39 | 998.3 |
| 20260504012827 | 64 | 237 | 0.0 | 0.0 | 0.00 | 0.00 | 0.00 | 35 | 998.3 |
| 20260504011827 | 66 | 237 | 0.0 | 0.0 | 0.00 | 0.00 | 0.00 | 33 | 998.3 |
| 20260504010827 | 68 | 256 | 0.0 | 0.0 | 0.00 | 0.00 | 0.00 | 30 | 998.2 |
| 20260504005827 | 71 | 232 | 1.0 | 2.0 | 0.00 | 0.00 | 0.00 | 28 | 998.2 |
| 20260504004827 | 74 | 273 | 0.0 | 1.0 | 0.00 | 0.00 | 0.00 | 27 | 998.2 |
| 20260504002827 | 75 | 255 | 2.0 | 2.0 | 0.00 | 0.00 | 0.00 | 25 | 998.3 |
| 20260504001827 | 76 | 249 | 2.0 | 2.0 | 0.00 | 0.00 | 0.00 | 25 | 998.3 |
| 20260504000827 | 76 | 258 | 4.0 | 4.0 | 0.00 | 0.00 | 0.00 | 25 | 998.4 |
| 20260503235827 | 75 | 247 | 9.0 | 13.0 | 0.00 | 0.00 | 0.00 | 24 | 998.4 |
| 20260503234828 | 77 | 243 | 4.0 | 4.0 | 0.00 | 0.00 | 0.00 | 24 | 998.3 |
| 20260503233827 | 76 | 263 | 6.0 | 8.0 | 0.00 | 0.00 | 0.00 | 24 | 998.4 |
| 20260503232826 | 77 | 249 | 6.0 | 7.0 | 0.00 | 0.00 | 0.00 | 24 | 998.3 |
| 20260503231827 | 77 | 264 | 3.0 | 5.0 | 0.00 | 0.00 | 0.00 | 23 | 998.4 |
| 20260503230827 | 77 | 254 | 6.0 | 7.0 | 0.00 | 0.00 | 0.00 | 23 | 998.4 |
| 20260503225828 | 78 | 270 | 4.0 | 5.0 | 0.00 | 0.00 | 0.00 | 23 | 998.5 |
| 20260503223827 | 78 | 256 | 7.0 | 9.0 | 0.00 | 0.00 | 0.00 | 23 | 998.4 |
| 20260503221827 | 78 | 116 | 9.0 | 12.0 | 0.00 | 0.00 | 0.00 | 24 | 998.5 |
| 20260503220826 | 77 | 248 | 6.0 | 7.0 | 0.00 | 0.00 | 0.00 | 24 | 998.7 |
| 20260503215826 | 77 | 252 | 6.0 | 9.0 | 0.00 | 0.00 | 0.00 | 24 | 998.6 |
| 20260503214828 | 76 | 237 | 6.0 | 10.0 | 0.00 | 0.00 | 0.00 | 25 | 998.7 |
| 20260503213827 | 77 | 248 | 8.0 | 11.0 | 0.00 | 0.00 | 0.00 | 23 | 998.7 |
| 20260503212827 | 77 | 230 | 9.0 | 11.0 | 0.00 | 0.00 | 0.00 | 23 | 998.7 |
| 20260503211827 | 77 | 114 | 5.0 | 9.0 | 0.00 | 0.00 | 0.00 | 24 | 998.8 |
| 20260503210827 | 77 | 246 | 10.0 | 13.0 | 0.00 | 0.00 | 0.00 | 24 | 998.8 |
| 20260503205827 | 77 | 240 | 9.0 | 11.0 | 0.00 | 0.00 | 0.00 | 25 | 998.9 |
| 20260503204827 | 78 | 267 | 4.0 | 7.0 | 0.00 | 0.00 | 0.00 | 26 | 998.9 |
| 20260503203827 | 77 | 252 | 5.0 | 8.0 | 0.00 | 0.00 | 0.00 | 26 | 999.0 |
| 20260503202827 | 77 | 254 | 7.0 | 10.0 | 0.00 | 0.00 | 0.00 | 25 | 999.1 |
| 20260503201827 | 77 | 235 | 7.0 | 8.0 | 0.00 | 0.00 | 0.00 | 25 | 999.2 |
| 20260503200827 | 76 | 255 | 11.0 | 13.0 | 0.00 | 0.00 | 0.00 | 25 | 999.3 |
| 20260503195827 | 76 | 232 | 9.0 | 10.0 | 0.00 | 0.00 | 0.00 | 26 | 999.4 |
| 20260503193827 | 76 | 261 | 10.0 | 13.0 | 0.00 | 0.00 | 0.00 | 27 | 999.3 |
| 20260503191827 | 75 | 263 | 8.0 | 10.0 | 0.00 | 0.00 | 0.00 | 29 | 999.4 |
| 20260503190827 | 74 | 240 | 10.0 | 14.0 | 0.00 | 0.00 | 0.00 | 28 | 999.4 |
| 20260503185827 | 76 | 247 | 7.0 | 10.0 | 0.00 | 0.00 | 0.00 | 31 | 999.4 |
| 20260503184827 | 75 | 252 | 3.0 | 4.0 | 0.00 | 0.00 | 0.00 | 32 | 999.5 |
| 20260503183827 | 75 | 267 | 6.0 | 10.0 | 0.00 | 0.00 | 0.00 | 29 | 999.4 |
| 20260503182826 | 75 | 243 | 8.0 | 10.0 | 0.00 | 0.00 | 0.00 | 30 | 999.6 |
| 20260503181828 | 74 | 272 | 7.0 | 8.0 | 0.00 | 0.00 | 0.00 | 30 | 999.6 |
| 20260503180827 | 74 | 243 | 5.0 | 7.0 | 0.00 | 0.00 | 0.00 | 32 | 999.5 |
| 20260503175826 | 73 | 270 | 7.0 | 13.0 | 0.00 | 0.00 | 0.00 | 32 | 999.6 |
| 20260503173827 | 72 | 234 | 14.0 | 19.0 | 0.00 | 0.00 | 0.00 | 31 | 999.5 |
| 20260503172827 | 73 | 244 | 7.0 | 8.0 | 0.00 | 0.00 | 0.00 | 33 | 999.7 |
| 20260503171827 | 72 | 255 | 10.0 | 13.0 | 0.00 | 0.00 | 0.00 | 33 | 999.8 |
| 20260503170827 | 71 | 249 | 16.0 | 21.0 | 0.00 | 0.00 | 0.00 | 33 | 999.6 |
| 20260503150827 | 66 | 237 | 10.0 | 13.0 | 0.00 | 0.00 | 0.00 | 42 | 999.7 |
| 20260503130827 | 58 | 220 | 5.0 | 6.0 | 0.00 | 0.00 | 0.00 | 49 | 1000.2 |
| 20260503110827 | 52 | 199 | 8.0 | 10.0 | 0.00 | 0.00 | 0.00 | 53 | 1000.3 |
| 20260503080827 | 54 | 216 | 8.0 | 11.0 | 0.00 | 0.00 | 0.00 | 47 | 1002.4 |
| 20260503072827 | 54 | 172 | 5.0 | 7.0 | 0.00 | 0.00 | 0.00 | 48 | 1003.3 |
| 20260503071827 | 53 | 163 | 4.0 | 5.0 | 0.00 | 0.00 | 0.00 | 48 | 1003.1 |
| 20260503070827 | 53 | 168 | 4.0 | 5.0 | 0.00 | 0.00 | 0.00 | 48 | 1003.1 |